Terminal Aerodrome Forecast
Issued by NWS

Current Version | Previous Version | Text Only | Print | Product List | Glossary On
Versions: 1 2 3 4 5 6 7 8 9 10 11 12 13 14 15 16 17 18 19 20 21 22 23 24 25 26 27 28 29 30 31 32 33 34 35 36 37 38 39 40 41 42 43 44 45 46 47 48 49 50
000
FTUS41 KCTP 261803 AAA
TAFJST
TAF AMD
KJST 261803Z 2618/2718 VRB04KT 1 1/2SM -SN BR FEW013 BKN021 OVC035
     FM270400 01008KT 1SM -SN OVC015
     FM270900 30006KT 1 1/2SM BR OVC004=

USA.gov is the U.S. government's official web portal to all federal, state and local government web resources and services.